CZ-6A DEB, 54571

Orbit data source: Space-Track

CZ-6A DEB, 54571 is space debris in SSO originally from a launch on Fri, 11 Nov 2022 UTC launched from the Taiyaun Space Center, China (TSC). Debris objects in space refer to the collection of defunct objects orbiting the Earth. Examples of debris include non-operational satellites, rocket bodies, and fragments generated from explosions, collisions, or faulty payload assembly.

Loading next visibility...
Identifier
54571, 2022-151LX
Orbit
SSO
Country
Flag of CNCN / PRC
Related business
Manufacturer
SAST
Mission
Spacecraft
Bus & Motor
Unknown
Mass
Unknown
Launch date (UTC)
2022-11-11 (4 years ago)
Launch vehicle
Unknown
Launch site
Taiyaun Space Center, China (TSC)
Object type
Payload
Rocket body
Debris
Shape & HBR
Unknown shape, 0.1 m
Radar Cross Section
Medium (>0.1 m² and <1 m²)

Expand to show TLE details & history
Last TLE update: 2 days ago

TLE from 2 days ago
0 CZ-6A DEB
1 54571U 22151LX  26171.41646534  .00000523  00000-0  31303-3 0  9996
2 54571  98.7946 159.0018 0058773 348.7198  11.2652 14.10518949185127
Epoch: 2026-06-20T09:59Z
TLE epoch observation values (Epoch: 2026-06-20T09:59:42.605Z)
Latitude
Longitude
100.44288°
Altitude
818.789 km
Speed
7.465 km/s
True Right ascension
10h 36m 00s
True Declination
0° 00' 00"
Sunlit
Object was in daylight at epoch
Visualization orbit readout
Latitude
Unknown
Longitude
Unknown
Altitude
Unknown
Speed
Unknown
Apparent Right ascension
Unknown
Apparent Declination
Unknown
Sunlit
N/A
Visualization observer readout
Local Sidereal Time
23:19:25
Azimuth
Unknown
Elevation
Unknown
Doppler factor
Unknown
Orbital elements
Apogee altitude
897.282 km
Perigee altitude
812.262 km
Semi-major axis
7,232.909 km
Eccentricity
0.00588
Inclination
98.7946°
RAAN
159.0018°
Arg. of periapsis
348.7198°
True anomaly
11.39772°
Mean anomaly
11.2652°
Eccentric anomaly
11.33136°
Mean motion
3.52837 °/min
Orbital period
102.03 mins
BSTAR
0.00031303
Loading maneuver chart data...
Computing Atmospheric mass density...
Loading historical data...
Loading historical data...
Loading historical data...
Loading historical data...
Loading historical data...
Loading historical data...
Loading historical data...

Documentation

Showing up to 5 results
|